Torna al catalogo

QIANFAN-152

AttivoComunicazioniPO
NORAD 69111·PAYLOAD·🇨🇳 China

Lanciato May 17, 2026 da Wenchang Space Launch Site

Loading…

Prossimi Passaggi (prossime 24 ore)

TLE

AggiornatoSource: Space-Track

Epoca: Sep 14, 2026, 22:04 UTC

1 69111U 26108H   26257.92012593  .00000099  00000-0  13524-3 0  9994
2 69111  89.0186  13.0719 0002268  98.6587 261.4821 13.51028019 16566

Traccia QIANFAN-152 in tempo reale con AllMySat

Download on the App Store